DELTA 1 DEB, 21568

Orbit data source: Space-Track

DELTA 1 DEB, 21568 is space debris in SSO originally from a launch on Thu, 12 Jun 1975 UTC launched from the Air Force Western Test Range (AFWTR). Debris objects in space refer to the collection of defunct objects orbiting the Earth. Examples of debris include non-operational satellites, rocket bodies, and fragments generated from explosions, collisions, or faulty payload assembly.

Loading next visibility...
Identifier
21568, 1975-052HN
Orbit
SSO
Country
Flag of USUS
Related business
Manufacturer
Unknown
Mission
Spacecraft
Bus & Motor
Unknown
Mass
Unknown
Launch date (UTC)
1975-06-12 (51 years ago)
Launch vehicle
Unknown
Launch site
Air Force Western Test Range (AFWTR)
Object type
Payload
Rocket body
Debris
Shape & HBR
Unknown shape, 0.1 m
Radar Cross Section
Small (<0.1 m²)

Expand to show TLE details & history
Last TLE update: 8 hours ago

TLE from 8 hours ago
0 DELTA 1 DEB
1 21568U 75052HN  25354.15592955  .00000466  00000-0  56970-3 0  9997
2 21568  99.9110 196.1603 0240754 197.2871 290.9950 13.59736559703407
Epoch: 2025-12-20T03:44Z
TLE epoch observation values (Epoch: 2025-12-20T03:44:32.313Z)
Latitude
53.24594°
Longitude
-115.503°
Altitude
985.079 km
Speed
7.394 km/s
True Right ascension
01h 58m 28s
True Declination
53° 05' 10"
Sunlit
Object was in full shadow at epoch
Visualization orbit readout
Latitude
Unknown
Longitude
Unknown
Altitude
Unknown
Speed
Unknown
Apparent Right ascension
Unknown
Apparent Declination
Unknown
Sunlit
N/A
Visualization observer readout
Local Sidereal Time
10:49:38
Azimuth
Unknown
Elevation
Unknown
Doppler factor
Unknown
Orbital elements
Apogee altitude
1,212.396 km
Perigee altitude
855.498 km
Semi-major axis
7,412.084 km
Eccentricity
0.02408
Inclination
99.911°
RAAN
196.1603°
Arg. of periapsis
197.2871°
True anomaly
288.39215°
Mean anomaly
290.995°
Eccentric anomaly
289.69629°
Mean motion
3.4012 °/min
Orbital period
105.84 mins
BSTAR
0.0005697
Loading maneuver chart data...
Computing Atmospheric mass density...
Loading historical data...
Loading historical data...
Loading historical data...
Loading historical data...
Loading historical data...
Loading historical data...
Loading historical data...

Documentation

Showing up to 5 results
|